Rome, NY

5:09 PM EST on November 11, 2019 (GMT -0500)
Griffiss

Weather History for KRME - September, 2019

Change the Weather History Date:

Wednesday, September 25, 2019

  Actual Average Record
Temperature  
Mean Temperature 62 °F -  
Max Temperature 75 °F 67 °F 89 °F (2017)
Min Temperature 50 °F 42 °F 33 °F (1989)
Degree Days  
Heating Degree Days 2    
Growing Degree Days 12 (Base 50)    
Moisture  
Dew Point 55 °F    
Average Humidity 87    
Maximum Humidity 100    
Minimum Humidity 55    
Precipitation  
Precipitation 0.00 in - - ()
Sea Level Pressure  
Sea Level Pressure 29.86 in    
Wind  
Wind Speed 2 mph (ESE)    
Max Wind Speed 8 mph    
Max Gust Speed -    
Visibility 10 miles    
Events      
Averages and records for this station are not official NWS values.
T = Trace of Precipitation, MM = Missing Value Source: NWS Daily Summary

Daily Weather History Graph

Daily Weather History Graph

Search for Another Location

Airport or City:

Astronomy

Sep. 25, 2019 Rise Set
Actual Time 6:51 AM EDT 6:53 PM EDT
Civil Twilight 6:23 AM EDT 7:22 PM EDT
Nautical Twilight 5:50 AM EDT 7:55 PM EDT
Astronomical Twilight 5:16 AM EDT 8:29 PM EDT
Moon 2:33 AM EDT (9/25) 5:32 PM EDT (9/25)
Length of Visible Light 12h 58m
Length of Day
12h 02m
Waning Crescent, 14% of the Moon is Illuminated
Sep 25
Waning Crescent
Sep 28
New
Oct 5
First Quarter
Oct 13
Full
Oct 21
Last Quarter

Hourly Weather History & Observations

Time (EDT) Temp. Dew Point Humidity Pressure Visibility Wind Dir Wind Speed Gust Speed Precip Events Conditions
12:53 AM 53.1 °F 53.1 °F 100% 29.88 in 10.0 mi Calm Calm - N/A   Mostly Cloudy
1:53 AM 51.1 °F 51.1 °F 100% 29.87 in 10.0 mi Calm Calm - N/A   Partly Cloudy
2:36 AM 50.0 °F 50.0 °F 100% 29.87 in 10.0 mi Calm Calm - N/A   Mostly Cloudy
2:53 AM 50.0 °F 50.0 °F 100% 29.87 in 10.0 mi Calm Calm - N/A   Mostly Cloudy
3:23 AM 51.1 °F 51.1 °F 100% 29.89 in 10.0 mi Calm Calm - N/A   Scattered Clouds
3:32 AM 51.1 °F 50.0 °F 96% 29.89 in 10.0 mi Calm Calm - N/A   Mostly Cloudy
3:53 AM 52.0 °F 51.1 °F 97% 29.90 in 10.0 mi Calm Calm - N/A   Overcast
4:53 AM 52.0 °F 52.0 °F 100% 29.90 in 10.0 mi East 3.5 mph - N/A   Overcast
5:53 AM 51.1 °F 51.1 °F 100% 29.90 in 10.0 mi SE 3.5 mph - N/A   Overcast
6:14 AM 51.1 °F 51.1 °F 100% 29.91 in 10.0 mi ESE 4.6 mph - N/A   Overcast
6:53 AM 52.0 °F 51.1 °F 97% 29.91 in 10.0 mi Calm Calm - N/A   Overcast
7:53 AM 51.1 °F 51.1 °F 100% 29.92 in 10.0 mi SE 4.6 mph - N/A   Mostly Cloudy
8:00 AM 52.0 °F 52.0 °F 100% 29.93 in 10.0 mi SE 5.8 mph - N/A   Mostly Cloudy
8:19 AM 53.1 °F 53.1 °F 100% 29.92 in 10.0 mi East 4.6 mph - N/A   Overcast
8:53 AM 54.0 °F 54.0 °F 100% 29.92 in 5.0 mi ESE 4.6 mph - N/A   Overcast
9:20 AM 55.0 °F 54.0 °F 96% 29.92 in 10.0 mi ESE 5.8 mph - N/A   Overcast
9:53 AM 57.0 °F 55.0 °F 93% 29.92 in 10.0 mi Variable 3.5 mph - N/A   Overcast
10:00 AM 55.9 °F 55.0 °F 97% 29.93 in 10.0 mi SSE 4.6 mph - N/A   Overcast
10:53 AM 60.1 °F 55.0 °F 83% 29.91 in 10.0 mi Calm Calm - N/A   Scattered Clouds
11:53 AM 64.9 °F 55.9 °F 73% 29.88 in 10.0 mi Variable 4.6 mph - N/A   Clear
12:53 PM 68.0 °F 55.9 °F 65% 29.86 in 10.0 mi SE 3.5 mph - N/A   Clear
1:53 PM 71.1 °F 55.9 °F 59% 29.84 in 10.0 mi Calm Calm - N/A   Clear
2:53 PM 72.0 °F 57.0 °F 59% 29.81 in 10.0 mi Variable 3.5 mph - N/A   Clear
3:53 PM 73.9 °F 57.9 °F 57% 29.78 in 10.0 mi Calm Calm - N/A   Clear
4:10 PM 75.0 °F 57.9 °F 55% 29.79 in 10.0 mi Calm Calm - N/A   Clear
4:53 PM 73.9 °F 59.0 °F 59% 29.78 in 10.0 mi East 4.6 mph - N/A   Clear
5:53 PM 73.9 °F 61.0 °F 64% 29.78 in 10.0 mi East 3.5 mph - N/A   Clear
6:53 PM 66.0 °F 62.1 °F 87% 29.78 in 10.0 mi ESE 4.6 mph - N/A   Clear
7:53 PM 64.0 °F 61.0 °F 90% 29.78 in 10.0 mi ESE 3.5 mph - N/A   Clear
8:53 PM 63.0 °F 60.1 °F 90% 29.79 in 10.0 mi SE 4.6 mph - N/A   Clear
9:53 PM 64.0 °F 59.0 °F 84% 29.80 in 10.0 mi ESE 5.8 mph - N/A   Scattered Clouds
10:53 PM 64.9 °F 59.0 °F 81% 29.80 in 10.0 mi East 8.1 mph - N/A   Overcast
11:53 PM 66.0 °F 57.9 °F 75% 29.79 in 10.0 mi East 6.9 mph - N/A   Overcast